Weather in Rodionovo-Nesvetajskaja

Russia / Rostov Oblast     47°36′54″N   39°42′22″E
temp.,
°C
wind,
m/s
gust,
m/s
humid.,
%
clouds,
%
prec.,
mm/h
press.,
hPa
HPBL,
m
16 june, wed
wed1600:00+19wnw11790 0.0 100911
03:00+18w11810 0.0 101011
06:00+19nw118394 0.0 101043
09:00+23wsw117254 0.1 1011430
12:00+25nne33615 0.8 1011864
15:00+27ne34531 0.8 10101523
18:00+26ene3465100 0.0 100969
21:00+24ene51364100 0.2 1009424
17 june, thu
thu1700:00+22ne71674100 0.9 1009445
03:00+21ene81876100 1.8 1008501
06:00+20ne71686100 3.7 1010473
09:00+20ne2891100 5.3 1011387
12:00+22nne2486100 1.8 1012205
15:00+21n2393100 10.3 1012129
18:00+17ssw61597100 41.2 1015814
21:00+17nne3698100 60.5 1015202
18 june, fri
fri1800:00+16ene249884 0.9 1017141
03:00+16e019212 0.9 101711
06:00+17n1290100 0.0 101878
09:00+18ne4590100 0.4 1018335
12:00+20ene5777100 1.5 1019894
15:00+22ene4873100 2.3 10191279
18:00+18ese51186100 0.3 1019383
21:00+19ne6167882 1.0 1019464
19 june, sat
sat1900:00+18ene8177096 0.1 1019550
03:00+16ene8177012 0.2 1019492
06:00+15ene7158410 0.9 1020430
09:00+20e814760 1.8 1020632
12:00+24e812610 0.0 1020901
15:00+25e812610 0.0 10191218
18:00+24ene714640 0.0 1018648
21:00+21ne717560 0.0 1018414
20 june, sun
sun2000:00+20ene818510 0.0 1018477
03:00+19ene717510 0.0 1018434
06:00+17ene7176110 0.0 1018375
09:00+21ene81662100 0.0 1017626
12:00+25e9155894 0.0 1016925
15:00+28e815545 0.0 10151270
18:00+27e8175760 0.0 1014568
21:00+24e7175398 0.0 1015385